When you browse on this site, cookies collect data to enhance your experience and personalize the content and advertising you see.
Visit our Privacy Policy to learn more. By continuing to use the site, you agree to this use of cookies and data.
  • In Latvia
  • List of Countries
  • For 7 days
  • Water Temperature
  • Weather Map
  • Weather Widgets
  • user-avatar
    Login

    Hourly Weather Novozaryanskiy

    Today, 22 August, Thursday

    Time Temperature Precipitation Wind Pressure Humidity
    00:00 +28°C° 0 mm 6 mps 750 mmHg 44%
    01:00 +28°C° 0 mm 5 mps 751 mmHg 47%
    02:00 +27°C° 0 mm 5 mps 751 mmHg 50%
    03:00 +26°C° 0 mm 5 mps 751 mmHg 53%
    04:00 +26°C° 0 mm 5 mps 751 mmHg 55%
    05:00 +25°C° 0 mm 5 mps 751 mmHg 58%
    06:00 +25°C° 0 mm 4 mps 751 mmHg 61%
    07:00 +27°C° 0 mm 5 mps 751 mmHg 56%
    08:00 +28°C° 0 mm 5 mps 751 mmHg 51%
    09:00 +30°C° 0 mm 5 mps 751 mmHg 45%
    10:00 +33°C° 0 mm 5 mps 751 mmHg 40%
    11:00 +35°C° 0 mm 5 mps 751 mmHg 35%
    12:00 +37°C° 0 mm 5 mps 751 mmHg 30%
    13:00 +37°C° 0 mm 5 mps 751 mmHg 28%
    14:00 +39°C° 0 mm 5 mps 751 mmHg 26%
    15:00 +39°C° 0 mm 5 mps 751 mmHg 24%
    16:00 +39°C° 0 mm 5 mps 751 mmHg 25%
    17:00 +37°C° 0 mm 5 mps 750 mmHg 27%
    18:00 +36°C° 0 mm 5 mps 750 mmHg 28%
    19:00 +34°C° 0 mm 4 mps 750 mmHg 31%
    20:00 +32°C° 0 mm 4 mps 751 mmHg 35%
    21:00 +29°C° 0 mm 4 mps 751 mmHg 38%
    22:00 +28°C° 0 mm 4 mps 751 mmHg 41%
    23:00 +28°C° 0 mm 4 mps 751 mmHg 44%

    Tomorrow, 23 August, Friday

    Time Temperature Precipitation Wind Pressure Humidity
    00:00 +27°C° 0 mm 4 mps 751 mmHg 46%
    01:00 +27°C° 0 mm 4 mps 751 mmHg 47%
    02:00 +26°C° 0 mm 4 mps 751 mmHg 48%
    03:00 +26°C° 0 mm 5 mps 751 mmHg 48%
    04:00 +26°C° 0 mm 5 mps 751 mmHg 48%
    05:00 +25°C° 0 mm 5 mps 751 mmHg 48%
    06:00 +25°C° 0 mm 5 mps 751 mmHg 48%
    07:00 +27°C° 0 mm 6 mps 751 mmHg 45%
    08:00 +28°C° 0 mm 6 mps 751 mmHg 41%
    09:00 +30°C° 0 mm 6 mps 752 mmHg 38%
    10:00 +33°C° 0 mm 6 mps 752 mmHg 34%
    11:00 +35°C° 0 mm 6 mps 752 mmHg 31%
    12:00 +36°C° 0 mm 6 mps 752 mmHg 27%
    13:00 +38°C° 0 mm 6 mps 751 mmHg 26%
    14:00 +38°C° 0 mm 6 mps 751 mmHg 25%
    15:00 +39°C° 0 mm 6 mps 751 mmHg 24%
    16:00 +38°C° 0 mm 6 mps 751 mmHg 26%
    17:00 +36°C° 0 mm 6 mps 751 mmHg 27%
    18:00 +36°C° 0 mm 5 mps 751 mmHg 29%
    19:00 +34°C° 0 mm 5 mps 751 mmHg 33%
    20:00 +32°C° 0 mm 5 mps 751 mmHg 37%
    21:00 +30°C° 0 mm 5 mps 752 mmHg 40%
    22:00 +29°C° 0 mm 5 mps 752 mmHg 42%
    23:00 +28°C° 0 mm 5 mps 751 mmHg 44%

    Day after tomorrow, 24 August, Saturday

    Time Temperature Precipitation Wind Pressure Humidity
    00:00 +27°C° 0 mm 5 mps 751 mmHg 46%
    01:00 +27°C° 0 mm 5 mps 751 mmHg 47%
    02:00 +26°C° 0 mm 6 mps 751 mmHg 48%
    03:00 +26°C° 0 mm 6 mps 751 mmHg 49%
    04:00 +26°C° 0 mm 6 mps 751 mmHg 51%
    05:00 +26°C° 0 mm 6 mps 751 mmHg 53%
    06:00 +24°C° 0 mm 6 mps 751 mmHg 55%
    07:00 +26°C° 0.1 mm 6 mps 752 mmHg 53%
    08:00 +27°C° 0.1 mm 7 mps 752 mmHg 52%
    09:00 +28°C° 0.1 mm 7 mps 752 mmHg 50%
    10:00 +30°C° 0 mm 7 mps 752 mmHg 44%
    11:00 +33°C° 0 mm 7 mps 752 mmHg 38%
    12:00 +35°C° 0 mm 7 mps 752 mmHg 33%
    13:00 +35°C° 0 mm 7 mps 752 mmHg 31%
    14:00 +36°C° 0 mm 7 mps 752 mmHg 30%
    15:00 +36°C° 0 mm 7 mps 752 mmHg 28%
    16:00 +36°C° 0 mm 6 mps 751 mmHg 28%
    17:00 +35°C° 0 mm 5 mps 751 mmHg 28%
    18:00 +35°C° 0 mm 5 mps 751 mmHg 28%
    19:00 +33°C° 0 mm 4 mps 751 mmHg 32%
    20:00 +32°C° 0 mm 4 mps 751 mmHg 36%
    21:00 +29°C° 0 mm 4 mps 752 mmHg 39%
    22:00 +29°C° 0 mm 3 mps 751 mmHg 40%
    23:00 +29°C° 0 mm 3 mps 751 mmHg 42%

    25 August, Sunday

    Time Temperature Precipitation Wind Pressure Humidity
    00:00 +28°C° 0 mm 3 mps 751 mmHg 43%
    01:00 +28°C° 0 mm 3 mps 751 mmHg 45%
    02:00 +27°C° 0 mm 4 mps 751 mmHg 47%
    03:00 +27°C° 0 mm 4 mps 751 mmHg 48%
    04:00 +26°C° 0 mm 5 mps 751 mmHg 50%
    05:00 +26°C° 0 mm 5 mps 751 mmHg 51%
    06:00 +26°C° 0 mm 6 mps 751 mmHg 53%
    07:00 +27°C° 0 mm 6 mps 751 mmHg 49%
    08:00 +28°C° 0 mm 6 mps 751 mmHg 45%
    09:00 +29°C° 0 mm 6 mps 751 mmHg 41%
    10:00 +32°C° 0.1 mm 7 mps 751 mmHg 37%
    11:00 +33°C° 0.1 mm 7 mps 751 mmHg 34%
    12:00 +34°C° 0.1 mm 7 mps 751 mmHg 30%
    13:00 +33°C° 0.1 mm 7 mps 751 mmHg 30%
    14:00 +33°C° 0.1 mm 7 mps 751 mmHg 31%
    15:00 +32°C° 0.1 mm 7 mps 751 mmHg 31%
    16:00 +30°C° 0 mm 7 mps 751 mmHg 34%
    17:00 +29°C° 0 mm 7 mps 751 mmHg 38%
    18:00 +29°C° 0 mm 7 mps 751 mmHg 41%
    19:00 +27°C° 0 mm 6 mps 751 mmHg 44%
    20:00 +26°C° 0 mm 5 mps 751 mmHg 48%
    21:00 +25°C° 0 mm 4 mps 751 mmHg 51%
    22:00 +25°C° 0 mm 5 mps 751 mmHg 49%
    23:00 +26°C° 0 mm 5 mps 752 mmHg 47%

    26 August, Monday

    Time Temperature Precipitation Wind Pressure Humidity
    00:00 +26°C° 0 mm 5 mps 752 mmHg 44%
    01:00 +26°C° 0 mm 5 mps 752 mmHg 46%
    02:00 +26°C° 0 mm 6 mps 752 mmHg 47%
    03:00 +26°C° 0 mm 6 mps 752 mmHg 48%
    04:00 +24°C° 0 mm 6 mps 752 mmHg 50%
    05:00 +24°C° 0 mm 6 mps 752 mmHg 53%
    06:00 +24°C° 0 mm 6 mps 752 mmHg 55%
    07:00 +24°C° 0 mm 6 mps 753 mmHg 54%
    08:00 +24°C° 0 mm 6 mps 753 mmHg 52%
    09:00 +25°C° 0 mm 5 mps 754 mmHg 51%
    10:00 +27°C° 0 mm 5 mps 754 mmHg 47%
    11:00 +28°C° 0 mm 5 mps 754 mmHg 44%
    12:00 +30°C° 0 mm 5 mps 754 mmHg 40%
    13:00 +30°C° 0 mm 5 mps 754 mmHg 39%
    14:00 +30°C° 0 mm 5 mps 754 mmHg 38%
    15:00 +32°C° 0 mm 5 mps 754 mmHg 36%
    16:00 +30°C° 0 mm 5 mps 755 mmHg 35%
    17:00 +30°C° 0 mm 5 mps 755 mmHg 35%
    18:00 +30°C° 0 mm 5 mps 755 mmHg 34%
    19:00 +28°C° 0 mm 5 mps 755 mmHg 37%
    20:00 +26°C° 0 mm 5 mps 756 mmHg 40%
    21:00 +25°C° 0 mm 5 mps 756 mmHg 43%
    22:00 +23°C° 0 mm 5 mps 756 mmHg 42%
    23:00 +22°C° 0 mm 5 mps 756 mmHg 42%

    27 August, Tuesday

    Time Temperature Precipitation Wind Pressure Humidity
    00:00 +22°C° 0 mm 5 mps 757 mmHg 41%
    01:00 +21°C° 0 mm 5 mps 757 mmHg 44%
    02:00 +20°C° 0 mm 5 mps 757 mmHg 47%
    03:00 +19°C° 0 mm 5 mps 757 mmHg 50%
    04:00 +19°C° 0 mm 5 mps 757 mmHg 52%
    05:00 +17°C° 0 mm 5 mps 757 mmHg 55%
    06:00 +17°C° 0 mm 5 mps 757 mmHg 57%
    07:00 +20°C° 0 mm 6 mps 758 mmHg 53%
    08:00 +21°C° 0 mm 6 mps 758 mmHg 49%
    09:00 +23°C° 0 mm 6 mps 758 mmHg 44%
    10:00 +24°C° 0 mm 6 mps 758 mmHg 40%
    11:00 +27°C° 0 mm 6 mps 758 mmHg 36%
    12:00 +28°C° 0 mm 6 mps 758 mmHg 32%
    13:00 +29°C° 0 mm 6 mps 757 mmHg 30%
    14:00 +29°C° 0 mm 6 mps 757 mmHg 29%
    15:00 +29°C° 0 mm 6 mps 757 mmHg 28%
    16:00 +28°C° 0 mm 6 mps 757 mmHg 28%
    17:00 +28°C° 0 mm 6 mps 757 mmHg 28%
    18:00 +27°C° 0 mm 6 mps 757 mmHg 28%
    19:00 +25°C° 0 mm 5 mps 757 mmHg 29%
    20:00 +22°C° 0 mm 5 mps 757 mmHg 29%
    21:00 +20°C° 0 mm 4 mps 757 mmHg 30%
    22:00 +20°C° 0 mm 4 mps 757 mmHg 31%
    23:00 +19°C° 0 mm 4 mps 757 mmHg 32%
    Show more